Back to catalog

LO-74

CUBEBUG 2

AliveAmateur RadioSSO
NORAD 39440·PAYLOAD·🇦🇷 Argentina

Launched Nov 21, 2013 from Dombarovsky

Loading…

Next Passes (next 24 hours)

TLE

FreshSource: AMSAT

Epoch: Sep 14, 2026, 03:19 UTC

1 39440U 13066AA  26257.13862932  .00003454  00000-0  31672-3 0  9990
2 39440  97.8982 206.5592 0058666  92.2567 268.5372 14.94259901690277

Track LO-74 in real time with AllMySat

Download on the App Store